Regional Weather Roundup
Issued by NWS

Home | Current Version | Previous Version | Graphics & Text | Print | Product List | Glossary On
Versions: 1 2 3 4 5 6 7 8 9 10 11 12 13 14 15 16 17 18 19 20 21 22 23 24 25 26 27 28 29 30 31 32 33 34 35 36 37 38 39 40 41 42 43 44 45 46 47 48 49 50
000
ASUS43 KTOP 061059
RWRKS

WEATHER ROUNDUP FOR KANSAS
NATIONAL WEATHER SERVICE GOODLAND KS
600 AM CDT MON JUL 06 2015

NOTE:  "FAIR" INDICATES FEW OR NO CLOUDS BELOW 12,000 FEET WITH NO
SIGNIFICANT WEATHER AND/OR OBSTRUCTIONS TO VISIBILITY.

KSZ001>006-013>018-027>032-041>047-061200-
NORTHWEST KANSAS

CITY           SKY/WX    TMP DP  RH WIND       PRES   REMARKS
GOODLAND       LGT RAIN  65  64  97 N21G26    29.97R
HAYS           MOCLDY    79  63  57 SW13G21   29.83R
HILL CITY      MOCLDY    77  65  66 S3        29.83F
RUSSELL        MOCLDY    77  66  68 S14       29.81R
$$

KSZ061>065-074>080-084>089-061200-
SOUTHWEST KANSAS

CITY           SKY/WX    TMP DP  RH WIND       PRES   REMARKS
DODGE CITY     PTCLDY    72  63  73 S13       29.86F
ELKHART          N/A     72  57  59 NW8         N/A
GARDEN CITY    PTCLDY    71  66  84 S7        29.87R
GREAT BEND     MOCLDY    75  64  69 S10       29.85R
LIBERAL        CLEAR     72  64  78 SW10      29.91R
$$

KSZ066>073-081>083-090>101-061200-
SOUTHEAST KANSAS

CITY           SKY/WX    TMP DP  RH WIND       PRES   REMARKS
CHANUTE        CLOUDY    74  71  91 S9        29.92S
COFFEYVILLE    MOCLDY    74  71  91 S9        29.93R
HUTCHINSON     MOCLDY    77  67  71 S12       29.86R
MEDICINE LODGE   N/A     75  67  76 S7        29.86R
NEWTON         MOCLDY    75  64  69 S14       29.90R
PARSONS        MOCLDY    75  72  90 S6        29.94S
WICHITA INTL   CLOUDY    77  69  76 S12       29.87R
WICHITA JABRA  CLOUDY    76  69  79 S12       29.88R
WINFIELD       MOCLDY    76  69  79 S12       29.91R
$$

KSZ007>012-019>026-033>040-048>060-102>105-061200-
NORTHEAST KANSAS

CITY           SKY/WX    TMP DP  RH WIND       PRES   REMARKS
CONCORDIA      CLOUDY    77  68  73 S9        29.84S
EMPORIA        CLOUDY    74  70  87 S15       29.88S
LAWRENCE       CLOUDY    74  71  91 S9        29.89R
MANHATTAN      CLOUDY    78  70  76 SW7       29.85R
OLATHE IND     CLOUDY    73  69  87 S10       29.91S
OLATHE EXE     CLOUDY    72  69  90 S10       29.90S
SALINA         CLOUDY    78  67  68 S10       29.84R
TOPEKA BILLARD CLOUDY    77  72  84 S10       29.87R
TOPEKA FORBES  CLOUDY    76  71  85 S8        29.88R
$$



USA.gov is the U.S. government's official web portal to all federal, state and local government web resources and services.